Change the Weather History Date:

Thursday, October 11, 2012

  Actual Average Record
Temperature  
Mean Temperature 75 °F -  
Max Temperature 84 °F 77 °F 87 °F (2013)
Min Temperature 66 °F 62 °F 48 °F (2000)
Cooling Degree Days 10    
Growing Degree Days 25 (Base 50)    
Moisture  
Dew Point 67 °F    
Average Humidity 76    
Maximum Humidity 93    
Minimum Humidity 53    
Precipitation  
Precipitation 0.00 in - - ()
Sea Level Pressure  
Sea Level Pressure 30.16 in    
Wind  
Wind Speed 1 mph (SE)    
Max Wind Speed 6 mph    
Max Gust Speed -    
Averages and records for this station are not official NWS values.
T = Trace of Precipitation, MM = Missing Value Source: NWS Daily Summary

Daily Weather History Graph

Daily Weather History Graph

Search for Another Location

Airport or City:

Trip Planner

Search our weather history database for the weather conditions in past years. The results will help you decide how hot, cold, wet, or windy it might be!

Date:

Astronomy

Oct. 11, 2012 Rise Set
Actual Time 7:05 AM CDT 6:39 PM CDT
Civil Twilight 6:41 AM CDT 7:03 PM CDT
Nautical Twilight 6:13 AM CDT 7:30 PM CDT
Astronomical Twilight 5:46 AM CDT 7:58 PM CDT
Moon 3:01 AM CDT (10/11) 4:01 PM CDT (10/11)
Length of Visible Light 12h 21m
Length of Day
11h 33m
Waning Crescent, 18% of the Moon is Illuminated
Oct 11
Waning Crescent
Oct 15
New
Oct 21
First Quarter
Oct 29
Full
Nov 6
Last Quarter

Hourly Weather History & Observations

Time (CDT) Temp. Heat Index Dew Point Humidity Pressure Visibility Wind Dir Wind Speed Gust Speed Precip Events Conditions
12:53 AM 71.1 °F - 68.0 °F 90% 30.14 in - Calm Calm - N/A   Unknown
1:53 AM 70.0 °F - 66.9 °F 90% 30.13 in - Calm Calm - N/A   Unknown
2:53 AM 69.1 °F - 66.9 °F 93% 30.14 in - Calm Calm - N/A   Unknown
3:53 AM 69.1 °F - 66.9 °F 93% 30.13 in - Calm Calm - N/A   Unknown
4:53 AM 68.0 °F - 66.0 °F 93% 30.13 in - Calm Calm - N/A   Unknown
5:53 AM 68.0 °F - 64.9 °F 90% 30.14 in - Calm Calm - N/A   Unknown
6:53 AM 66.9 °F - 64.9 °F 93% 30.16 in - Calm Calm - N/A   Unknown
7:53 AM 68.0 °F - 66.0 °F 93% 30.17 in - Calm Calm - N/A   Unknown
8:53 AM 73.0 °F - 68.0 °F 84% 30.19 in - Variable 4.6 mph - N/A   Unknown
9:53 AM 79.0 °F - 66.9 °F 66% 30.20 in - ESE 4.6 mph - N/A   Unknown
10:53 AM 81.0 °F 82.7 °F 64.9 °F 58% 30.21 in - SE 5.8 mph - N/A   Unknown
11:53 AM 82.9 °F 84.6 °F 64.9 °F 54% 30.20 in - SE 5.8 mph - N/A   Unknown
12:53 PM 84.0 °F 86.3 °F 66.0 °F 55% 30.18 in - ESE 4.6 mph - N/A   Unknown
1:53 PM 84.0 °F 86.3 °F 66.0 °F 55% 30.16 in - Variable 4.6 mph - N/A   Unknown
2:53 PM 84.0 °F 85.8 °F 64.9 °F 53% 30.15 in - Variable 4.6 mph - N/A   Unknown
3:53 PM 84.0 °F 87.8 °F 69.1 °F 61% 30.14 in - Variable 3.5 mph - N/A   Unknown
4:53 PM 82.0 °F 84.9 °F 68.0 °F 62% 30.14 in - Variable 3.5 mph - N/A   Unknown
5:53 PM 81.0 °F 83.3 °F 66.9 °F 62% 30.14 in - SSE 4.6 mph - N/A   Unknown
6:53 PM 78.1 °F - 66.9 °F 68% 30.15 in - SE 4.6 mph - N/A   Unknown
7:53 PM 75.0 °F - 68.0 °F 79% 30.16 in - Calm Calm - N/A   Unknown
8:53 PM 73.9 °F - 68.0 °F 82% 30.17 in - Calm Calm - N/A   Unknown
9:53 PM 71.1 °F - 66.9 °F 87% 30.19 in - Calm Calm - N/A   Unknown
10:53 PM 71.1 °F - 66.9 °F 87% 30.19 in - Calm Calm - N/A   Unknown
11:53 PM 71.1 °F - 66.0 °F 84% 30.18 in - Calm Calm - N/A   Unknown